カタログに戻る

STARLINK-35061

運用中通信VLEO
NORAD 66191·PAYLOAD·🇺🇸 United States

打ち上げ Oct 26, 2025 から Cape Canaveral Space Force Station

Loading…

次のパス (今後24時間)

TLE

最新Source: CelesTrak SupGP

元期: Sep 15, 2026, 02:56 UTC

1 66191C 25243Q   26258.12270833 -.00023417  00000+0 -69190-3 0  2582
2 66191  53.1570  82.8961 0001151  87.3919 196.3850 15.34400895    17

AllMySatでSTARLINK-35061をリアルタイム追跡

Download on the App Store